Regional Weather Roundup
Issued by NWS Sterling, VA

Home | Current Version | Previous Version | Text Only | Print | Product List | Glossary Off
Versions: 1 2 3 4 5 6 7 8 9 10 11 12 13 14 15 16 17 18 19 20 21 22 23 24 25 26 27 28 29 30 31 32 33 34 35 36 37 38 39 40 41 42 43 44 45 46 47 48 49 50

000
ASUS41 KLWX 020710
RWRLWX

REGIONAL WEATHER ROUNDUP
NATIONAL WEATHER SERVICE BALTIMORE MD/WASHINGTON DC
300 AM EDT SUN AUG 02 2015

Note: "FAIR" indicates few or no clouds below 12,000 feet
with no significant weather and/or obstructions to visibility.
 TC=TEMPERATURE CELSIUS

 * =Non NWS site. Station does not report precipitation (e.g. rain,
    snow, etc.), thunder, or fog.

DCZ001-MDZ009-015-VAZ040>042-051-053>054-020800-
WASHINGTON METRO

CITY           SKY/WX    TMP DP  RH WIND       PRES   REMARKS
WASHINGTON NAT PTCLDY    77  61  57 N6        29.92S
DULLES         PTCLDY    67  60  78 W3        29.93S
LEESBURG*      MOCLDY    70  61  73 CALM      29.94F
MANASSAS*      CLEAR     64  64 100 CALM      29.93S
GAITHERSBURG*  PTCLDY    64  57  77 CALM      29.97S

$$

MDZ006>007-011-014-020800-
BALTIMORE METRO

CITY           SKY/WX    TMP DP  RH WIND       PRES   REMARKS
BWI AIRPORT    MOCLDY    69  61  75 CALM      29.91S
MD SCIENCE CTR   N/A     76  59  55 MISG      29.91S
MARTIN STATE   CLEAR     70  64  83 CALM      29.92S
ANNAPOLIS      PTCLDY    72  64  76 CALM      29.90S
FORT MEADE*    PTCLDY    63  61  94 CALM      29.94S

$$

MDZ012-015-019>023-020800-
MARYLAND EASTERN SHORE

CITY           SKY/WX    TMP DP  RH WIND       PRES   REMARKS
OCEAN CITY     PTCLDY    73  64  73 NW5       29.87F
SALISBURY      CLEAR     70  66  87 CALM      29.88F
BAY BRIDGE AP*   N/A     75  63  64 N3        29.90S
CAMBRIDGE*     CLEAR     72  68  88 NW3       29.89S
EASTON*        CLEAR     72  72 100 CALM      29.93S

$$

MDZ017>025-020800-
SOUTHERN MARYLAND

CITY           SKY/WX    TMP DP  RH WIND       PRES   REMARKS
PATUXENT RIVER PTCLDY    77  61  57 N7        29.89S
ST INIGOES     MOCLDY    77  65  66 CALM      29.89S
LEONARDTOWN*   PTCLDY    73  61  64 CALM      29.92S

$$

MDZ003>005-020800-
NORTH CENTRAL MARYLAND

CITY           SKY/WX    TMP DP  RH WIND       PRES   REMARKS
FREDERICK*     CLEAR     64  63  94 E3        29.96R
HAGERSTOWN APT CLEAR     69  57  65 S6        29.94R
WESTMINSTER*   CLEAR     68  59  73 CALM      29.94S

$$

MDZ501>502-020800-
WESTERN MARYLAND

CITY           SKY/WX    TMP DP  RH WIND       PRES   REMARKS
OAKLAND*       MOCLDY    61 N/A N/A W6        30.05F
CUMBERLAND*    CLEAR     63  59  88 CALM      29.99F

$$

VAZ025>031-020800-
SHENANDOAH VALLEY

CITY           SKY/WX    TMP DP  RH WIND       PRES   REMARKS
WINCHESTER*    CLEAR     63  55  77 CALM      29.95S
FRONT ROYAL*   FAIR      64  55  72 SW7       29.95S
LURAY*         FAIR      63  59  88 SW5       29.97S
NEW MARKET*    FAIR      58  57  95 CALM      29.97S
STAUNTON*      CLEAR     61  57  87 CALM      30.00S
WAYNESBORO*    FAIR      58  56  93 SW5       29.99F

$$

WVZ021-048>050-054>055-020800-
EASTERN WEST VIRGINIA PANHANDLE

CITY           SKY/WX    TMP DP  RH WIND       PRES   REMARKS
MARTINSBURG    CLEAR     60  56  86 S3        29.94S
PETERSBURG*    CLEAR    N/A N/A N/A CALM      29.99S

$$

VAZ036>039-050-020800-
CENTRAL FOOTHILLS

CITY           SKY/WX    TMP DP  RH WIND       PRES   REMARKS
CHARLOTTESVILL CLEAR     64  59  83 CALM      29.94S
CULPEPER*      CLEAR     63  63  99 CALM      29.94S
ORANGE*        CLEAR     64  63  94 CALM      29.95S
GORDONSVILLE*  FAIR      61  61 100 CALM      29.93F
WARRENTON*     FAIR      63  63 100 CALM      29.92F

$$

VAZ055>057-020800-
NORTH AND CENTRAL PIEDMONT

CITY           SKY/WX    TMP DP  RH WIND       PRES   REMARKS
FREDERICKSBRG* CLEAR     70  63  79 CALM      29.91S
STAFFORD*      PTCLDY    63  61  92 CALM      29.96S

$$

NCZ024-NYZ072-PAZ021-071-VAZ022-071-020800-
OTHER REGIONAL OBSERVATIONS

CITY           SKY/WX    TMP DP  RH WIND       PRES   REMARKS
NEW YORK CITY  CLEAR     75  55  49 W5        29.90S
PHILADELPHIA   PTCLDY    74  59  59 NW7       29.89S
PITTSBURGH     PTCLDY    67  56  67 CALM      29.96S
ROANOKE        CLEAR     64  56  75 W3        30.01S
RICHMOND       PTCLDY    75  61  61 N8        29.91R
RALEIGH        CLEAR     72  61  68 CALM      29.93S

$$

ANZ530>537-020800-
MARINE OBSERVATIONS

STATION/POSITION TIME  TEMP    WIND        PRES
                       AIR SEA DIR/SP/G
                 (UTC) (F)     (DEG/KT/KT) (MB)
THOMAS PT LIGHT  NOT AVBL
BALT KEY BRIDGE  0600   77     280/  7/  7 1012.5R
COVE POINT       0600   81     360/ 14/ 16 1012.9R
LEWISETTA        0600   78 85  310/  9/ 11 1012.0R
SOLOMONS ISLAND  0600      83                N/A
PINEY POINT      0600           20/  7/  8   N/A

$$




USA.gov is the U.S. government's official web portal to all federal, state and local government web resources and services.